STARLINK-31974, 59885

Orbit data source: Space-Track

STARLINK-31974, 59885 is a payload satellite owned by SpaceX/Seattle (US) in LEO that was launched on Tue, 28 May 2024 UTC via an FALCON 9 launch vehicle from the Air Force Eastern Test Range (AFETR). Payload-class satellites include a variety of spacecraft equipped with specific instruments for various scientific and technological missions. These include communications satellites like Starlink; space stations such as the ISS; scientific satellites like the Hubble; Earth observation satellites from companies like Planet Labs, Umbra, and HawkEye 360; GPS; miniature CubeSats for education and research; and military/defense satellites.

Loading next visibility...
Identifier
59885, 2024-100A
Orbit
LEO
Country
Flag of USUS
Related business
Manufacturer
SpaceX/Seattle
Mission
Operational spacecraft
Bus & Motor
STARLINK V2M, Unknown motor
Mass
730 kg wet, ~700 kg dry
Launch date (UTC)
2024-05-28 (1 year ago)
Launch vehicle
FALCON 9
Launch site
Air Force Eastern Test Range (AFETR)
Object type
Payload
Rocket body
Debris
Shape & HBR
Unknown
Radar Cross Section
Large (>1 m²)

Expand to show TLE details & history
Last TLE update: 23 hours ago

TLE from 23 hours ago
0 STARLINK-31974
1 59885U 24100A   25260.06737646 -.00002876  00000-0 -95053-4 0  9997
2 59885  42.9995  25.9234 0000502 345.9478  14.1359 15.27571318 74506
Epoch: 2025-09-17T01:37Z
TLE epoch observation values (Epoch: 2025-09-17T01:37:01.326Z)
Latitude
-0.00004°
Longitude
5.41918°
Altitude
482.516 km
Speed
7.626 km/s
True Right ascension
01h 43m 41s
True Declination
0° 00' 00"
Sunlit
Object was in full shadow at epoch
Visualization orbit readout
Latitude
Unknown
Longitude
Unknown
Altitude
Unknown
Speed
Unknown
Apparent Right ascension
Unknown
Apparent Declination
Unknown
Sunlit
N/A
Visualization observer readout
Local Sidereal Time
17:34:07
Azimuth
Unknown
Elevation
Unknown
Doppler factor
Unknown
Orbital elements
Apogee altitude
485.365 km
Perigee altitude
484.676 km
Semi-major axis
6,863.157 km
Eccentricity
0.00005
Inclination
42.9995°
RAAN
25.9234°
Arg. of periapsis
345.9478°
True anomaly
14.1373°
Mean anomaly
14.1359°
Eccentric anomaly
14.1366°
Mean motion
3.81731 °/min
Orbital period
94.31 mins
BSTAR
-0.000095053
Loading maneuver chart data...
Computing Atmospheric mass density...
Loading historical data...
Loading historical data...
Loading historical data...
Loading historical data...
Loading historical data...
Loading historical data...
Loading historical data...

Documentation

Showing up to 5 results
|